User: anonymous   Login
Location: Unspecified
(0.0000°N, 0.0000°E)
Time: 06:44:48
(UTC+00:00)
Language:

KUIPER-00098 - Orbit

View from above orbital plane
View from above orbital plane
View from above satellite
View from above satellite

Ground track
Ground track

The orbit is defined by the following mean orbital elements,

1 65137U          26145.52097741 +.00000000 +00000-0 +29485-3 0 00009
2 65137  51.8993 183.3441 0000324  65.2788 294.8208 14.79943236    09
Epoch (UTC): 25 May 2026 12:30:12
Eccentricity: 0.0000324
inclination: 51.8993°
perigee height: 629 km
apogee height: 630 km
right ascension of ascending node: 183.3441°
argument of perigee: 65.2788°
revolutions per day: 14.79943236
mean anomaly at epoch: 294.8208°

The dashed part of the orbit path shows where the satellite is in the earth's shadow,  

DLR